This is the latest recevied weather packets stored in our database for station/object KO4ZGL-13. If no packets are shown the sender has not sent any weather packets the latest 10 day(s).
| Time | Temp. | Humidity | Pressure | Rain* | Wind** | Luminosity | Snow |
|---|---|---|---|---|---|---|---|
| 1787744868 | 23.89° C | 99% | 1018.1 hPa | 0 mm | - | 47 W/m² | - |
| 1787744564 | 23.89° C | 99% | 1018.1 hPa | 0 mm | - | 42 W/m² | - |
| 1787744259 | 23.89° C | 99% | 1017.9 hPa | 0 mm | - | 37 W/m² | - |
| 1787743955 | 23.89° C | 99% | 1018.1 hPa | 0 mm | - | 35 W/m² | - |
| 1787743649 | 23.33° C | 99% | 1017.8 hPa | 0 mm | - | 26 W/m² | - |
| 1787743344 | 23.33° C | 99% | 1017.7 hPa | 0 mm | - | 17 W/m² | - |
| 1787743040 | 23.33° C | 99% | 1017.5 hPa | 0 mm | - | 13 W/m² | - |
| 1787742735 | 23.33° C | 99% | 1017.3 hPa | 0 mm | - | 8 W/m² | - |
| 1787742430 | 23.33° C | 99% | 1017.4 hPa | 0 mm | - | 5 W/m² | - |
| 1787742127 | 23.33° C | 99% | 1017.5 hPa | 0 mm | - | 3 W/m² | - |
| 1787741821 | 23.33° C | 99% | 1017.4 hPa | 0 mm | - | 1 W/m² | - |
| 1787741518 | 23.33° C | 99% | 1017.3 hPa | 0 mm | - | 0 W/m² | - |
| 1787741216 | 23.33° C | 99% | 1017.2 hPa | 0 mm | - | 0 W/m² | - |
| 1787740910 | 23.33° C | 99% | 1017.4 hPa | 0 mm | - | 0 W/m² | - |
| 1787740605 | 23.33° C | 99% | 1017.5 hPa | 0 mm | - | 0 W/m² | - |
| 1787740299 | 23.89° C | 99% | 1017.3 hPa | 0 mm | - | 0 W/m² | - |
| 1787739995 | 23.89° C | 99% | 1017.3 hPa | 0 mm | - | 0 W/m² | - |
| 1787739691 | 23.89° C | 99% | 1017.1 hPa | 0 mm | - | 0 W/m² | - |
| 1787739386 | 23.89° C | 99% | 1017.1 hPa | 0 mm | - | 0 W/m² | - |
| 1787739082 | 23.89° C | 99% | 1017.2 hPa | 0 mm | - | 0 W/m² | - |
| 1787738778 | 23.89° C | 99% | 1017 hPa | 0 mm | - | 0 W/m² | - |
| 1787738474 | 23.89° C | 99% | 1017.1 hPa | 0 mm | - | 0 W/m² | - |
| 1787738171 | 23.89° C | 99% | 1017 hPa | 0 mm | - | 0 W/m² | - |
| 1787737868 | 23.89° C | 99% | 1016.9 hPa | 0 mm | - | 0 W/m² | - |
| 1787737562 | 23.89° C | 99% | 1016.9 hPa | 0 mm | - | 0 W/m² | - |
* Rain latest hour (hover to see other rain measurements)
** Current wind speed in m/s (hover to see current wind gust speed)